Погода в Дышне-Ведено

Россия / Чеченская Республика     42°57′40″N   46°07′04″E
темп.,
°C
ветер,
м/с
пор.,
м/с
влажн.,
%
обл.,
%
осадки,
мм/ч
давл.,
гПа
погр.,
м
25 февраля, чт
чт2500:00−13юв11710 0.0 104021
03:00−12вюв01650 0.0 103921
06:00−11вюв116066 0.0 103824
09:00−7ссв116383 0.0 1037111
12:00−2с216283 0.0 1035257
15:00−1с216552 0.0 1033218
18:00−5юз117539 0.0 103321
21:00−3ююз224738 0.0 103323
26 февраля, пт
пт2600:00−2ююз2252100 0.0 103124
03:00−2ю1165100 0.0 102921
06:00−2ююз1269100 0.0 102821
09:00+2зюз2659100 0.0 1027388
12:00+5зсз3662100 0.0 1026869
15:00+4зсз247399 0.0 1024581
18:00+1ююз228578 0.0 102528
21:00+1ю238089 0.0 102633
27 февраля, сб
сб2700:00+1ю237863 0.0 102427
03:00+1ю237536 0.0 102326
06:000ю23740 0.0 102223
09:00+5в11690 0.0 1021211
12:00+7ссв22725 0.0 1019722
15:00+6ссв228319 0.1 1017523
18:00+3ююв119139 0.0 101722
21:00+2ю228320 0.0 101722
28 февраля, вс
вс2800:00+2ю23770 0.0 101625
03:00+2ю23700 0.0 101524
06:00+2ю33660 0.0 101426
09:00+5ссв116311 0.0 1014177
12:00+5с23848 0.0 1013470
15:00+2ссз239954 0.2 1014167
18:00+1ссз1299100 1.6 1016135
21:00+1сз1299100 4.7 1018131
1 марта, пн
пн100:000сз1299100 3.9 1019137
03:00−1ссз1299100 6.9 1020137
06:00−1ссз2399100 2.5 1022159
09:00−1сз1297100 4.9 1023191
12:000ссз2297100 1.3 1023309
15:00+1ссз2287100 2.1 1023551
18:00−1ссв1297100 0.7 102578
21:00−2св1198100 1.4 102779